Time,TemperatureF,DewpointF,PressureIn,WindDirection,WindDirectionDegrees,WindSpeedMPH,WindSpeedGustMPH,Humidity,HourlyPrecipIn,Conditions,Clouds,dailyrainin,SoftwareType,DateUTC
2014-04-24 00:01:00,50.0,35.4,30.06,North,0,0.0,0.0,57,0.00,,,0.00,meteobridge,2014-04-24 04:01:00,
2014-04-24 00:02:00,50.0,35.8,30.06,North,0,0.0,0.0,58,0.00,,,0.00,meteobridge,2014-04-24 04:02:00,
2014-04-24 00:04:00,50.0,36.3,30.06,North,0,0.0,0.0,59,0.00,,,0.00,meteobridge,2014-04-24 04:04:00,
2014-04-24 00:05:00,50.0,36.3,30.06,North,0,0.0,0.0,59,0.00,,,0.00,meteobridge,2014-04-24 04:05:00,
2014-04-24 00:10:00,49.8,35.6,30.05,North,0,0.0,0.0,58,0.00,,,0.00,meteobridge,2014-04-24 04:10:00,
2014-04-24 00:15:00,50.2,36.9,30.05,North,0,0.0,0.0,60,0.00,,,0.00,meteobridge,2014-04-24 04:15:00,
2014-04-24 00:20:00,49.8,37.4,30.03,North,0,0.0,0.0,62,0.00,,,0.00,meteobridge,2014-04-24 04:20:00,
2014-04-24 00:25:00,49.8,36.5,30.01,North,0,0.0,0.0,60,0.00,,,0.00,meteobridge,2014-04-24 04:25:00,
2014-04-24 00:31:00,50.5,35.4,30.01,North,0,0.0,0.0,56,0.00,,,0.00,meteobridge,2014-04-24 04:31:00,
2014-04-24 00:36:00,51.4,34.9,30.01,North,0,0.0,0.0,53,0.00,,,0.00,meteobridge,2014-04-24 04:36:00,
2014-04-24 00:41:00,51.6,34.5,30.02,North,0,0.0,0.0,52,0.00,,,0.00,meteobridge,2014-04-24 04:41:00,
2014-04-24 00:46:00,52.0,34.9,30.02,North,0,0.0,0.0,52,0.00,,,0.00,meteobridge,2014-04-24 04:46:00,
2014-04-24 00:51:00,51.8,35.2,30.02,North,0,0.0,0.0,53,0.00,,,0.00,meteobridge,2014-04-24 04:51:00,
2014-04-24 00:57:00,51.6,35.1,30.02,North,0,0.0,0.0,53,0.00,,,0.00,meteobridge,2014-04-24 04:57:00,
2014-04-24 01:02:00,51.6,35.1,30.02,North,0,0.0,0.0,53,0.00,,,0.00,meteobridge,2014-04-24 05:02:00,
2014-04-24 01:07:00,51.6,35.1,30.03,North,0,0.0,0.0,53,0.00,,,0.00,meteobridge,2014-04-24 05:07:00,
2014-04-24 01:12:00,51.6,35.1,30.03,North,0,0.0,0.0,53,0.00,,,0.00,meteobridge,2014-04-24 05:12:00,
2014-04-24 01:17:00,51.6,35.1,30.03,North,0,0.0,0.0,53,0.00,,,0.00,meteobridge,2014-04-24 05:17:00,
2014-04-24 01:23:00,51.6,35.1,30.03,North,0,0.0,0.0,53,0.00,,,0.00,meteobridge,2014-04-24 05:23:00,
2014-04-24 01:28:00,51.4,35.4,30.03,North,0,0.0,0.0,54,0.00,,,0.00,meteobridge,2014-04-24 05:28:00,
2014-04-24 01:33:00,51.4,35.8,30.03,North,0,0.0,0.0,55,0.00,,,0.00,meteobridge,2014-04-24 05:33:00,
2014-04-24 01:38:00,51.3,35.6,30.02,North,0,0.0,0.0,55,0.00,,,0.00,meteobridge,2014-04-24 05:38:00,
2014-04-24 01:43:00,51.3,35.6,30.02,North,0,0.0,0.0,55,0.00,,,0.00,meteobridge,2014-04-24 05:43:00,
2014-04-24 01:48:00,51.3,35.6,30.03,North,0,0.0,0.0,55,0.00,,,0.00,meteobridge,2014-04-24 05:48:00,
2014-04-24 01:54:00,51.1,36.0,30.03,North,0,0.0,0.0,56,0.00,,,0.00,meteobridge,2014-04-24 05:54:00,
2014-04-24 01:59:00,51.1,36.3,30.02,North,0,0.0,0.0,57,0.00,,,0.00,meteobridge,2014-04-24 05:59:00,
2014-04-24 02:04:00,51.1,36.3,30.02,North,0,0.0,0.0,57,0.00,,,0.00,meteobridge,2014-04-24 06:04:00,
2014-04-24 02:09:00,50.9,36.1,30.02,North,0,0.0,0.0,57,0.00,,,0.00,meteobridge,2014-04-24 06:09:00,
2014-04-24 02:14:00,50.7,36.0,30.02,North,0,0.0,0.0,57,0.00,,,0.00,meteobridge,2014-04-24 06:14:00,
2014-04-24 02:19:00,50.7,36.0,30.03,North,0,0.0,0.0,57,0.00,,,0.00,meteobridge,2014-04-24 06:19:00,
2014-04-24 02:25:00,50.7,36.0,30.02,North,0,0.0,0.0,57,0.00,,,0.00,meteobridge,2014-04-24 06:25:00,
2014-04-24 02:30:00,50.7,35.6,30.02,North,0,0.0,0.0,56,0.00,,,0.00,meteobridge,2014-04-24 06:30:00,
2014-04-24 02:35:00,50.7,35.6,30.02,North,0,0.0,0.0,56,0.00,,,0.00,meteobridge,2014-04-24 06:35:00,
2014-04-24 02:40:00,50.5,36.0,30.01,North,0,0.0,0.0,57,0.00,,,0.00,meteobridge,2014-04-24 06:40:00,
2014-04-24 02:45:00,50.5,36.0,30.01,North,0,0.0,0.0,57,0.00,,,0.00,meteobridge,2014-04-24 06:45:00,
2014-04-24 02:50:00,50.4,36.1,30.00,North,0,0.0,0.0,58,0.00,,,0.00,meteobridge,2014-04-24 06:50:00,
2014-04-24 02:55:00,50.2,36.0,30.00,North,0,0.0,0.0,58,0.00,,,0.00,meteobridge,2014-04-24 06:55:00,
2014-04-24 03:00:00,50.2,36.0,29.99,North,0,0.0,0.0,58,0.00,,,0.00,meteobridge,2014-04-24 07:00:00,
2014-04-24 03:05:00,50.0,36.3,30.00,North,0,0.0,0.0,59,0.00,,,0.00,meteobridge,2014-04-24 07:05:00,
2014-04-24 03:11:00,49.8,36.1,30.00,North,0,0.0,0.0,59,0.00,,,0.00,meteobridge,2014-04-24 07:11:00,
2014-04-24 03:16:00,49.8,36.1,30.00,North,0,0.0,0.0,59,0.00,,,0.00,meteobridge,2014-04-24 07:16:00,
2014-04-24 03:21:00,49.8,36.1,30.00,North,0,0.0,0.0,59,0.00,,,0.00,meteobridge,2014-04-24 07:21:00,
2014-04-24 03:26:00,49.8,36.1,30.01,North,0,0.0,0.0,59,0.00,,,0.00,meteobridge,2014-04-24 07:26:00,
2014-04-24 03:32:00,49.8,36.5,30.01,North,0,0.0,0.0,60,0.00,,,0.00,meteobridge,2014-04-24 07:32:00,
2014-04-24 03:37:00,49.8,36.5,30.01,North,0,0.0,0.0,60,0.00,,,0.00,meteobridge,2014-04-24 07:37:00,
2014-04-24 03:42:00,49.8,36.5,30.02,North,0,0.0,0.0,60,0.00,,,0.00,meteobridge,2014-04-24 07:42:00,
2014-04-24 03:47:00,49.8,36.5,30.02,North,0,0.0,0.0,60,0.00,,,0.00,meteobridge,2014-04-24 07:47:00,
2014-04-24 03:52:00,49.8,36.9,30.02,North,0,0.0,0.0,61,0.00,,,0.00,meteobridge,2014-04-24 07:52:00,
2014-04-24 03:58:00,49.8,36.9,30.02,North,0,0.0,0.0,61,0.00,,,0.00,meteobridge,2014-04-24 07:58:00,
2014-04-24 04:03:00,49.6,36.7,30.01,North,0,0.0,0.0,61,0.00,,,0.00,meteobridge,2014-04-24 08:03:00,
2014-04-24 04:08:00,49.6,37.2,30.02,North,0,0.0,0.0,62,0.00,,,0.00,meteobridge,2014-04-24 08:08:00,
2014-04-24 04:13:00,49.6,36.7,30.01,North,0,0.0,0.0,61,0.00,,,0.00,meteobridge,2014-04-24 08:13:00,
2014-04-24 04:18:00,49.6,37.2,30.02,North,0,0.0,0.0,62,0.00,,,0.00,meteobridge,2014-04-24 08:18:00,
2014-04-24 04:24:00,49.5,37.0,30.02,North,0,0.0,0.0,62,0.00,,,0.00,meteobridge,2014-04-24 08:24:00,
2014-04-24 04:29:00,49.5,37.0,30.01,North,0,0.0,0.0,62,0.00,,,0.00,meteobridge,2014-04-24 08:29:00,
2014-04-24 04:34:00,49.3,37.2,30.01,North,0,0.0,0.0,63,0.00,,,0.00,meteobridge,2014-04-24 08:34:00,
2014-04-24 04:39:00,49.3,37.2,30.01,North,0,0.0,0.0,63,0.00,,,0.00,meteobridge,2014-04-24 08:39:00,
2014-04-24 04:44:00,49.3,37.2,30.01,North,0,0.0,0.0,63,0.00,,,0.00,meteobridge,2014-04-24 08:44:00,
2014-04-24 04:50:00,49.3,37.2,30.02,North,0,0.0,0.0,63,0.00,,,0.00,meteobridge,2014-04-24 08:50:00,
2014-04-24 04:55:00,49.3,37.2,30.02,North,0,0.0,0.0,63,0.00,,,0.00,meteobridge,2014-04-24 08:55:00,
2014-04-24 05:00:00,49.3,37.2,30.02,North,0,0.0,0.0,63,0.00,,,0.00,meteobridge,2014-04-24 09:00:00,
2014-04-24 05:05:00,49.1,37.0,30.02,North,0,0.0,0.0,63,0.00,,,0.00,meteobridge,2014-04-24 09:05:00,
2014-04-24 05:10:00,49.1,37.0,30.02,North,0,0.0,0.0,63,0.00,,,0.00,meteobridge,2014-04-24 09:10:00,
2014-04-24 05:16:00,48.9,36.9,30.02,North,0,0.0,0.0,63,0.00,,,0.00,meteobridge,2014-04-24 09:16:00,
2014-04-24 05:21:00,48.9,37.2,30.01,North,0,0.0,0.0,64,0.00,,,0.00,meteobridge,2014-04-24 09:21:00,
2014-04-24 05:26:00,48.9,37.2,30.02,North,0,0.0,0.0,64,0.00,,,0.00,meteobridge,2014-04-24 09:26:00,
2014-04-24 05:31:00,48.7,37.0,30.02,North,0,0.0,0.0,64,0.00,,,0.00,meteobridge,2014-04-24 09:31:00,
2014-04-24 05:37:00,48.7,37.6,30.03,North,0,0.0,0.0,65,0.00,,,0.00,meteobridge,2014-04-24 09:37:00,
2014-04-24 05:42:00,48.7,37.6,30.03,North,0,0.0,0.0,65,0.00,,,0.00,meteobridge,2014-04-24 09:42:00,
2014-04-24 05:47:00,48.6,37.4,30.03,North,0,0.0,0.0,65,0.00,,,0.00,meteobridge,2014-04-24 09:47:00,
2014-04-24 05:52:00,48.6,37.4,30.03,North,0,0.0,0.0,65,0.00,,,0.00,meteobridge,2014-04-24 09:52:00,
2014-04-24 05:57:00,48.4,37.2,30.02,North,0,0.0,0.0,65,0.00,,,0.00,meteobridge,2014-04-24 09:57:00,